Weather History for Salem, IL

Change the Weather History Date:

Thursday, January 2, 2014

  Actual Average Record
Temperature  
Mean Temperature 20 °F -  
Max Temperature 30 °F 37 °F 62 °F (2004)
Min Temperature 10 °F 22 °F -2 °F (1979)
Degree Days  
Heating Degree Days 45    
Moisture  
Dew Point 15 °F    
Average Humidity 84    
Maximum Humidity 96    
Minimum Humidity 76    
Precipitation  
Precipitation 0.00 in - - ()
Sea Level Pressure  
Sea Level Pressure 30.22 in    
Wind  
Wind Speed 14 mph (NNW)    
Max Wind Speed 23 mph    
Max Gust Speed 30 mph    
Visibility 7 miles    
Events Snow    
Averages and records for this station are not official NWS values.
T = Trace of Precipitation, MM = Missing Value Source: NWS Daily Summary

Daily Weather History Graph

Daily Weather History Graph

Search for Another Location

Airport:

Trip Planner

Search our weather history database for the weather conditions in past years. The results will help you decide how hot, cold, wet, or windy it might be!

Date:

Astronomy

Jan. 02, 2014 Rise Set
Actual Time 7:13 AM CST 4:46 PM CST
Civil Twilight 6:44 AM CST 5:15 PM CST
Nautical Twilight 6:11 AM CST 5:49 PM CST
Astronomical Twilight 5:38 AM CST 6:21 PM CST
Moon 7:56 AM CST (1/2) 6:41 PM CST (1/2)
Length of Visible Light 10h 31m
Length of Day
9h 32m
Waxing Crescent, 3% of the Moon is Illuminated
Jan 2
Waxing Crescent
Jan 7
First Quarter
Jan 15
Full
Jan 23
Last Quarter
Jan 30
New

Hourly Weather History & Observations

Time (CST) Temp. Windchill Dew Point Humidity Pressure Visibility Wind Dir Wind Speed Gust Speed Precip Events Conditions
12:15 AM 30.9 °F 22.8 °F 30.0 °F 96% 29.99 in 4.0 mi North 9.2 mph - N/A Snow Light Snow
12:35 AM 30.4 °F 21.0 °F 29.3 °F 96% 29.98 in 3.0 mi North 11.5 mph - N/A Snow Light Snow
12:55 AM 30.0 °F 20.5 °F 28.9 °F 96% 29.98 in 2.5 mi North 11.5 mph - N/A Snow Light Snow
1:15 AM 29.1 °F 18.9 °F 27.7 °F 94% 29.98 in 2.0 mi North 12.7 mph - N/A Snow Light Snow
1:35 AM 28.0 °F 16.5 °F 26.4 °F 94% 29.99 in 3.0 mi North 15.0 mph - N/A Snow Light Snow
1:55 AM 27.5 °F 17.4 °F 25.7 °F 93% 30.00 in 4.0 mi NNW 11.5 mph - N/A Snow Light Snow
2:15 AM 26.6 °F 14.3 °F 24.4 °F 92% 30.01 in 5.0 mi NNW 16.1 mph - N/A Snow Light Snow
2:35 AM 25.7 °F 12.7 °F 23.5 °F 92% 30.02 in 5.0 mi NNW 17.3 mph - N/A Snow Light Snow
2:55 AM 24.6 °F 11.3 °F 22.1 °F 90% 30.03 in 4.0 mi NNW 17.3 mph - N/A Snow Light Snow
3:15 AM 23.2 °F 9.0 °F 20.5 °F 89% 30.04 in 2.0 mi NNW 18.4 mph 23.0 mph N/A Snow Light Snow
3:35 AM 23.0 °F 10.6 °F 20.3 °F 89% 30.03 in 3.0 mi NNW 13.8 mph - N/A Snow Light Snow
3:55 AM 22.6 °F 9.2 °F 20.1 °F 90% 30.04 in 2.0 mi NNW 16.1 mph 24.2 mph N/A Snow Light Snow
4:15 AM 22.5 °F 9.4 °F 20.1 °F 91% 30.04 in 2.0 mi NNW 15.0 mph - N/A Snow Light Snow
4:35 AM 22.1 °F 8.9 °F 19.6 °F 90% 30.05 in 2.0 mi NNW 15.0 mph - N/A Snow Light Snow
4:55 AM 21.7 °F 8.5 °F 19.4 °F 91% 30.05 in 1.8 mi NNW 15.0 mph 20.7 mph N/A Snow Light Snow
5:15 AM 21.2 °F 6.8 °F 18.9 °F 91% 30.06 in 2.5 mi NNW 17.3 mph - N/A Snow Light Snow
5:35 AM 21.2 °F 7.8 °F 18.9 °F 91% 30.06 in 1.8 mi NW 15.0 mph - N/A Snow Light Snow
5:55 AM 20.3 °F 4.8 °F 17.6 °F 89% 30.07 in 1.8 mi NNW 19.6 mph - N/A Snow Light Snow
6:15 AM 19.9 °F 3.9 °F 17.1 °F 89% 30.08 in 2.0 mi NNW 20.7 mph 26.5 mph N/A Snow Light Snow
6:35 AM 19.6 °F 3.5 °F 16.5 °F 88% 30.09 in 4.0 mi NNW 20.7 mph 27.6 mph N/A Snow Light Snow
6:55 AM 19.2 °F 3.8 °F 15.8 °F 87% 30.10 in 5.0 mi NW 18.4 mph 24.2 mph N/A Snow Light Snow
7:15 AM 19.2 °F 3.8 °F 15.8 °F 87% 30.11 in 10.0 mi NNW 18.4 mph 24.2 mph N/A   Overcast
7:35 AM 19.0 °F 3.2 °F 15.6 °F 87% 30.11 in 7.0 mi NNW 19.6 mph 26.5 mph N/A   Overcast
7:55 AM 18.9 °F 3.8 °F 15.6 °F 87% 30.13 in 7.0 mi NW 17.3 mph 26.5 mph N/A   Overcast
8:15 AM 18.5 °F 3.3 °F 15.4 °F 88% 30.14 in 7.0 mi NW 17.3 mph 25.3 mph N/A   Overcast
8:35 AM 18.7 °F 4.6 °F 15.4 °F 87% 30.15 in 10.0 mi NW 15.0 mph 21.9 mph N/A   Overcast
8:55 AM 18.5 °F 5.5 °F 15.4 °F 88% 30.17 in 10.0 mi NW 12.7 mph - N/A   Overcast
9:15 AM 18.5 °F 3.3 °F 15.4 °F 88% 30.18 in 7.0 mi NW 17.3 mph 21.9 mph N/A Snow Light Snow
9:35 AM 19.0 °F 4.0 °F 15.4 °F 86% 30.18 in 7.0 mi NW 17.3 mph 23.0 mph N/A Snow Light Snow
9:55 AM 19.2 °F 4.7 °F 15.6 °F 86% 30.18 in 7.0 mi NW 16.1 mph - N/A Snow Light Snow
10:15 AM 19.2 °F 4.7 °F 15.6 °F 86% 30.19 in 5.0 mi NW 16.1 mph 23.0 mph N/A Snow Light Snow
10:35 AM 19.8 °F 5.0 °F 15.4 °F 83% 30.19 in 7.0 mi NW 17.3 mph - N/A Snow Light Snow
10:55 AM 19.9 °F 3.9 °F 15.4 °F 83% 30.20 in 5.0 mi NW 20.7 mph 25.3 mph N/A Snow Light Snow
11:15 AM 19.9 °F 6.7 °F 15.3 °F 82% 30.20 in 5.0 mi NW 13.8 mph 25.3 mph N/A Snow Light Snow
11:35 AM 19.4 °F 3.6 °F 14.4 °F 81% 30.19 in 7.0 mi NW 19.6 mph 25.3 mph N/A Snow Light Snow
11:55 AM 19.9 °F 4.8 °F 14.7 °F 80% 30.19 in 4.0 mi NW 18.4 mph 25.3 mph N/A Snow Light Snow
12:15 PM 19.6 °F 4.3 °F 14.5 °F 81% 30.19 in 3.0 mi WNW 18.4 mph 27.6 mph N/A Snow Light Snow
12:35 PM 20.1 °F 5.0 °F 14.2 °F 78% 30.20 in 5.0 mi NW 18.4 mph 23.0 mph N/A Snow Light Snow
12:55 PM 20.5 °F 7.4 °F 14.9 °F 79% 30.20 in 7.0 mi NW 13.8 mph - N/A Snow Light Snow
1:15 PM 20.5 °F 5.5 °F 14.9 °F 79% 30.21 in 5.0 mi NW 18.4 mph 25.3 mph N/A Snow Light Snow
1:35 PM 20.5 °F 3.9 °F 14.9 °F 79% 30.21 in 4.0 mi NW 23.0 mph 27.6 mph N/A Snow Light Snow
1:55 PM 20.7 °F 4.1 °F 14.5 °F 77% 30.22 in 7.0 mi NNW 23.0 mph 29.9 mph N/A Snow Light Snow
2:15 PM 20.7 °F 6.1 °F 14.4 °F 77% 30.23 in 10.0 mi NW 17.3 mph 26.5 mph N/A   Overcast
2:35 PM 20.7 °F 6.6 °F 14.7 °F 78% 30.24 in 7.0 mi NW 16.1 mph 26.5 mph N/A Snow Light Snow
2:55 PM 20.3 °F 6.1 °F 14.0 °F 77% 30.26 in 10.0 mi NNW 16.1 mph 25.3 mph N/A Snow Light Snow
3:15 PM 20.8 °F 8.4 °F 14.4 °F 76% 30.27 in 10.0 mi NW 12.7 mph - N/A   Overcast
3:35 PM 20.1 °F 6.4 °F 14.0 °F 77% 30.28 in 10.0 mi NNW 15.0 mph 23.0 mph N/A   Overcast
3:55 PM 19.8 °F 5.0 °F 13.6 °F 77% 30.30 in 10.0 mi NW 17.3 mph 20.7 mph N/A Snow Light Snow
4:15 PM 19.4 °F 5.5 °F 13.6 °F 78% 30.31 in 7.0 mi NNW 15.0 mph 19.6 mph N/A Snow Light Snow
4:35 PM 19.0 °F 5.0 °F 13.5 °F 79% 30.32 in 7.0 mi NNW 15.0 mph 20.7 mph N/A Snow Light Snow
4:55 PM 19.2 °F 4.7 °F 13.1 °F 77% 30.33 in 10.0 mi NNW 16.1 mph - N/A   Overcast
5:15 PM 18.5 °F 5.5 °F 12.6 °F 78% 30.34 in 10.0 mi NNW 12.7 mph 23.0 mph N/A   Mostly Cloudy
5:35 PM 17.8 °F 3.4 °F 12.0 °F 78% 30.36 in 10.0 mi NW 15.0 mph 18.4 mph N/A   Scattered Clouds
5:55 PM 17.2 °F 3.3 °F 11.3 °F 78% 30.37 in 10.0 mi NW 13.8 mph - N/A   Scattered Clouds
6:15 PM 16.9 °F 2.3 °F 10.9 °F 77% 30.38 in 10.0 mi NW 15.0 mph - N/A   Clear
6:35 PM 16.5 °F 3.6 °F 10.8 °F 78% 30.40 in 10.0 mi NW 11.5 mph - N/A   Clear
6:55 PM 16.3 °F 3.4 °F 10.4 °F 77% 30.40 in 10.0 mi NW 11.5 mph - N/A   Clear
7:15 PM 15.6 °F 2.5 °F 10.2 °F 79% 30.41 in 10.0 mi NW 11.5 mph - N/A   Clear
7:35 PM 15.4 °F 3.8 °F 9.9 °F 79% 30.41 in 10.0 mi NW 9.2 mph - N/A   Clear
7:55 PM 14.9 °F 4.0 °F 9.5 °F 79% 30.41 in 10.0 mi NNW 8.1 mph - N/A   Clear
8:15 PM 14.9 °F 2.3 °F 9.5 °F 79% 30.42 in 10.0 mi NW 10.4 mph - N/A   Clear
8:35 PM 14.4 °F 2.4 °F 9.1 °F 80% 30.42 in 10.0 mi NNW 9.2 mph - N/A   Clear
8:55 PM 13.6 °F 4.6 °F 8.6 °F 80% 30.43 in 10.0 mi NW 5.8 mph - N/A   Clear
9:15 PM 12.9 °F 1.6 °F 8.2 °F 82% 30.43 in 10.0 mi NNW 8.1 mph - N/A   Clear
9:35 PM 12.2 °F 1.7 °F 7.7 °F 82% 30.43 in 10.0 mi NNW 6.9 mph - N/A   Clear
9:55 PM 12.0 °F 2.7 °F 7.7 °F 83% 30.43 in 10.0 mi NNW 5.8 mph - N/A   Clear
10:15 PM 12.0 °F 0.5 °F 7.5 °F 82% 30.43 in 10.0 mi NNW 8.1 mph - N/A   Clear
10:35 PM 11.8 °F -0.7 °F 7.3 °F 82% 30.43 in 10.0 mi NNW 9.2 mph - N/A   Clear
10:55 PM 11.3 °F -0.4 °F 6.8 °F 82% 30.45 in 10.0 mi NNW 8.1 mph - N/A   Clear
11:15 PM 10.9 °F 0.2 °F 6.6 °F 83% 30.46 in 10.0 mi NW 6.9 mph - N/A   Clear
11:35 PM 10.4 °F 4.0 °F 6.4 °F 84% 30.46 in 10.0 mi NW 3.5 mph - N/A   Clear
11:55 PM 10.0 °F 1.8 °F 6.1 °F 84% 30.46 in 10.0 mi NW 4.6 mph - N/A   Clear